owner,sensor,date,latitude,longitude,sea_surface_height_above_sea_level,qcFlag 
TCOON,ioos:station:TCOON:057:1,2014-05-01T00:00:00Z,28.4460,-96.3961,3.61,1111122 
TCOON,ioos:station:TCOON:057:1,2014-05-01T01:00:00Z,28.4460,-96.3961,3.565,1111122 
TCOON,ioos:station:TCOON:057:1,2014-05-01T02:00:00Z,28.4460,-96.3961,3.526,1111122 
TCOON,ioos:station:TCOON:057:1,2014-05-01T03:00:00Z,28.4460,-96.3961,3.5,1111122 
TCOON,ioos:station:TCOON:057:1,2014-05-01T04:00:00Z,28.4460,-96.3961,3.459,1111122 
TCOON,ioos:station:TCOON:057:1,2014-05-01T04:54:00Z,28.4460,-96.3961,3.452,1111122 
TCOON,ioos:station:TCOON:057:1,2014-05-01T06:18:00Z,28.4460,-96.3961,3.438,1111122 
TCOON,ioos:station:TCOON:057:1,2014-05-01T07:00:00Z,28.4460,-96.3961,3.437,1111122 
TCOON,ioos:station:TCOON:057:1,2014-05-01T08:00:00Z,28.4460,-96.3961,3.446,1111122 
TCOON,ioos:station:TCOON:057:1,2014-05-01T09:00:00Z,28.4460,-96.3961,3.486,1111122 
TCOON,ioos:station:TCOON:057:1,2014-05-01T10:00:00Z,28.4460,-96.3961,3.53,1111122 
TCOON,ioos:station:TCOON:057:1,2014-05-01T11:00:00Z,28.4460,-96.3961,3.577,1111122 
TCOON,ioos:station:TCOON:057:1,2014-05-01T12:00:00Z,28.4460,-96.3961,3.584,1111122 
TCOON,ioos:station:TCOON:057:1,2014-05-01T13:00:00Z,28.4460,-96.3961,3.621,1111122 
TCOON,ioos:station:TCOON:057:1,2014-05-01T14:00:00Z,28.4460,-96.3961,3.653,1111122 
TCOON,ioos:station:TCOON:057:1,2014-05-01T15:00:00Z,28.4460,-96.3961,3.684,1111122 
TCOON,ioos:station:TCOON:057:1,2014-05-01T16:00:00Z,28.4460,-96.3961,3.703,1111122 
TCOON,ioos:station:TCOON:057:1,2014-05-01T17:00:00Z,28.4460,-96.3961,3.704,1111122 
TCOON,ioos:station:TCOON:057:1,2014-05-01T18:00:00Z,28.4460,-96.3961,3.718,1111122 
TCOON,ioos:station:TCOON:057:1,2014-05-01T19:00:00Z,28.4460,-96.3961,3.718,1111122 
TCOON,ioos:station:TCOON:057:1,2014-05-01T20:00:00Z,28.4460,-96.3961,3.739,1111122 
TCOON,ioos:station:TCOON:057:1,2014-05-01T21:00:00Z,28.4460,-96.3961,3.74,1111122 
TCOON,ioos:station:TCOON:057:1,2014-05-01T22:00:00Z,28.4460,-96.3961,3.729,1111122 
TCOON,ioos:station:TCOON:057:1,2014-05-01T23:00:00Z,28.4460,-96.3961,3.723,1111122 
TCOON,ioos:station:TCOON:057:1,2014-05-02T00:00:00Z,28.4460,-96.3961,3.694,1111122 
TCOON,ioos:station:TCOON:057:1,2014-05-02T01:00:00Z,28.4460,-96.3961,3.66,1111122 
TCOON,ioos:station:TCOON:057:1,2014-05-02T02:00:00Z,28.4460,-96.3961,3.639,1111122 
TCOON,ioos:station:TCOON:057:1,2014-05-02T03:00:00Z,28.4460,-96.3961,3.607,1111122 
TCOON,ioos:station:TCOON:057:1,2014-05-02T04:00:00Z,28.4460,-96.3961,3.587,1111122 
TCOON,ioos:station:TCOON:057:1,2014-05-02T05:00:00Z,28.4460,-96.3961,3.557,1111122 
TCOON,ioos:station:TCOON:057:1,2014-05-02T06:00:00Z,28.4460,-96.3961,3.525,1111122 
TCOON,ioos:station:TCOON:057:1,2014-05-02T07:00:00Z,28.4460,-96.3961,3.511,1111122 
TCOON,ioos:station:TCOON:057:1,2014-05-02T08:00:00Z,28.4460,-96.3961,3.522,1111122 
TCOON,ioos:station:TCOON:057:1,2014-05-02T08:54:00Z,28.4460,-96.3961,3.531,1111122 
TCOON,ioos:station:TCOON:057:1,2014-05-02T10:00:00Z,28.4460,-96.3961,3.578,1111122 
TCOON,ioos:station:TCOON:057:1,2014-05-02T11:00:00Z,28.4460,-96.3961,3.597,1111122 
TCOON,ioos:station:TCOON:057:1,2014-05-02T12:00:00Z,28.4460,-96.3961,3.623,1111122 
TCOON,ioos:station:TCOON:057:1,2014-05-02T13:00:00Z,28.4460,-96.3961,3.658,1111122 
TCOON,ioos:station:TCOON:057:1,2014-05-02T14:00:00Z,28.4460,-96.3961,3.686,1111122 
TCOON,ioos:station:TCOON:057:1,2014-05-02T15:00:00Z,28.4460,-96.3961,3.72,1111122 
TCOON,ioos:station:TCOON:057:1,2014-05-02T16:00:00Z,28.4460,-96.3961,3.714,1111122 
TCOON,ioos:station:TCOON:057:1,2014-05-02T17:00:00Z,28.4460,-96.3961,3.733,1111122 
TCOON,ioos:station:TCOON:057:1,2014-05-02T18:00:00Z,28.4460,-96.3961,3.741,1111122 
TCOON,ioos:station:TCOON:057:1,2014-05-02T19:00:00Z,28.4460,-96.3961,3.735,1111122 
TCOON,ioos:station:TCOON:057:1,2014-05-02T20:00:00Z,28.4460,-96.3961,3.704,1111122 
TCOON,ioos:station:TCOON:057:1,2014-05-02T21:00:00Z,28.4460,-96.3961,3.702,1111122 
TCOON,ioos:station:TCOON:057:1,2014-05-02T22:00:00Z,28.4460,-96.3961,3.693,1111122 
TCOON,ioos:station:TCOON:057:1,2014-05-02T23:00:00Z,28.4460,-96.3961,3.67,1111122 
TCOON,ioos:station:TCOON:057:1,2014-05-03T00:00:00Z,28.4460,-96.3961,3.644,1111122 
TCOON,ioos:station:TCOON:057:1,2014-05-03T01:00:00Z,28.4460,-96.3961,3.603,1111122 
TCOON,ioos:station:TCOON:057:1,2014-05-03T02:00:00Z,28.4460,-96.3961,3.569,1111122 
TCOON,ioos:station:TCOON:057:1,2014-05-03T03:00:00Z,28.4460,-96.3961,3.535,1111122 
TCOON,ioos:station:TCOON:057:1,2014-05-03T04:00:00Z,28.4460,-96.3961,3.511,1111122 
TCOON,ioos:station:TCOON:057:1,2014-05-03T05:00:00Z,28.4460,-96.3961,3.492,1111122 
TCOON,ioos:station:TCOON:057:1,2014-05-03T06:00:00Z,28.4460,-96.3961,3.469,1111122 
TCOON,ioos:station:TCOON:057:1,2014-05-03T07:00:00Z,28.4460,-96.3961,3.45,1111122 
TCOON,ioos:station:TCOON:057:1,2014-05-03T08:00:00Z,28.4460,-96.3961,3.45,1111122 
TCOON,ioos:station:TCOON:057:1,2014-05-03T09:00:00Z,28.4460,-96.3961,3.436,1111122 
TCOON,ioos:station:TCOON:057:1,2014-05-03T10:00:00Z,28.4460,-96.3961,3.473,1111122 
TCOON,ioos:station:TCOON:057:1,2014-05-03T11:00:00Z,28.4460,-96.3961,3.509,1111122 
TCOON,ioos:station:TCOON:057:1,2014-05-03T12:00:00Z,28.4460,-96.3961,3.53,1111122 
TCOON,ioos:station:TCOON:057:1,2014-05-03T13:00:00Z,28.4460,-96.3961,3.568,1111122 
TCOON,ioos:station:TCOON:057:1,2014-05-03T14:00:00Z,28.4460,-96.3961,3.599,1111122 
TCOON,ioos:station:TCOON:057:1,2014-05-03T15:00:00Z,28.4460,-96.3961,3.639,1111122 
TCOON,ioos:station:TCOON:057:1,2014-05-03T16:00:00Z,28.4460,-96.3961,3.621,1111122 
TCOON,ioos:station:TCOON:057:1,2014-05-03T17:00:00Z,28.4460,-96.3961,3.658,1111122 
TCOON,ioos:station:TCOON:057:1,2014-05-03T18:00:00Z,28.4460,-96.3961,3.655,1111122 
TCOON,ioos:station:TCOON:057:1,2014-05-03T19:00:00Z,28.4460,-96.3961,3.67,1111122 
TCOON,ioos:station:TCOON:057:1,2014-05-03T20:00:00Z,28.4460,-96.3961,3.653,1111122 
TCOON,ioos:station:TCOON:057:1,2014-05-03T21:00:00Z,28.4460,-96.3961,3.626,1111122 
TCOON,ioos:station:TCOON:057:1,2014-05-03T22:00:00Z,28.4460,-96.3961,3.604,1111122 
TCOON,ioos:station:TCOON:057:1,2014-05-03T23:00:00Z,28.4460,-96.3961,3.586,1111122 
TCOON,ioos:station:TCOON:057:1,2014-05-04T00:00:00Z,28.4460,-96.3961,3.566,1111122 
TCOON,ioos:station:TCOON:057:1,2014-05-04T01:00:00Z,28.4460,-96.3961,3.53,1111122 
TCOON,ioos:station:TCOON:057:1,2014-05-04T02:00:00Z,28.4460,-96.3961,3.501,1111122 
TCOON,ioos:station:TCOON:057:1,2014-05-04T02:54:00Z,28.4460,-96.3961,3.474,1111122 
TCOON,ioos:station:TCOON:057:1,2014-05-04T04:00:00Z,28.4460,-96.3961,3.442,1111122 
TCOON,ioos:station:TCOON:057:1,2014-05-04T05:00:00Z,28.4460,-96.3961,3.417,1111122 
TCOON,ioos:station:TCOON:057:1,2014-05-04T06:24:00Z,28.4460,-96.3961,3.373,1111122 
TCOON,ioos:station:TCOON:057:1,2014-05-04T07:00:00Z,28.4460,-96.3961,3.348,1111122 
TCOON,ioos:station:TCOON:057:1,2014-05-04T08:00:00Z,28.4460,-96.3961,3.34,1111122 
TCOON,ioos:station:TCOON:057:1,2014-05-04T09:00:00Z,28.4460,-96.3961,3.333,1111122 
TCOON,ioos:station:TCOON:057:1,2014-05-04T10:00:00Z,28.4460,-96.3961,3.341,1111122 
TCOON,ioos:station:TCOON:057:1,2014-05-04T11:00:00Z,28.4460,-96.3961,3.366,1111122 
TCOON,ioos:station:TCOON:057:1,2014-05-04T12:00:00Z,28.4460,-96.3961,3.392,1111122 
TCOON,ioos:station:TCOON:057:1,2014-05-04T13:00:00Z,28.4460,-96.3961,3.431,1111122 
TCOON,ioos:station:TCOON:057:1,2014-05-04T14:00:00Z,28.4460,-96.3961,3.453,1111122 
TCOON,ioos:station:TCOON:057:1,2014-05-04T15:00:00Z,28.4460,-96.3961,3.495,1111122 
TCOON,ioos:station:TCOON:057:1,2014-05-04T16:00:00Z,28.4460,-96.3961,3.491,1111122 
TCOON,ioos:station:TCOON:057:1,2014-05-04T17:00:00Z,28.4460,-96.3961,3.511,1111122 
TCOON,ioos:station:TCOON:057:1,2014-05-04T18:00:00Z,28.4460,-96.3961,3.531,1111122 
TCOON,ioos:station:TCOON:057:1,2014-05-04T18:54:00Z,28.4460,-96.3961,3.54,1111122 
TCOON,ioos:station:TCOON:057:1,2014-05-04T20:00:00Z,28.4460,-96.3961,3.543,1111122 
TCOON,ioos:station:TCOON:057:1,2014-05-04T20:54:00Z,28.4460,-96.3961,3.544,1111122 
TCOON,ioos:station:TCOON:057:1,2014-05-04T22:00:00Z,28.4460,-96.3961,3.535,1111122 
TCOON,ioos:station:TCOON:057:1,2014-05-04T23:00:00Z,28.4460,-96.3961,3.531,1111122 
TCOON,ioos:station:TCOON:057:1,2014-05-05T00:00:00Z,28.4460,-96.3961,3.523,1111122 
TCOON,ioos:station:TCOON:057:1,2014-05-05T01:00:00Z,28.4460,-96.3961,3.5,1111122 
TCOON,ioos:station:TCOON:057:1,2014-05-05T02:00:00Z,28.4460,-96.3961,3.474,1111122 
TCOON,ioos:station:TCOON:057:1,2014-05-05T03:00:00Z,28.4460,-96.3961,3.441,1111122 
TCOON,ioos:station:TCOON:057:1,2014-05-05T04:00:00Z,28.4460,-96.3961,3.404,1111122 
TCOON,ioos:station:TCOON:057:1,2014-05-05T05:00:00Z,28.4460,-96.3961,3.384,1111122 
TCOON,ioos:station:TCOON:057:1,2014-05-05T06:30:00Z,28.4460,-96.3961,3.341,1111122 
TCOON,ioos:station:TCOON:057:1,2014-05-05T07:00:00Z,28.4460,-96.3961,3.335,1111122 
TCOON,ioos:station:TCOON:057:1,2014-05-05T08:00:00Z,28.4460,-96.3961,3.334,1111122 
TCOON,ioos:station:TCOON:057:1,2014-05-05T09:00:00Z,28.4460,-96.3961,3.352,1111122 
TCOON,ioos:station:TCOON:057:1,2014-05-05T10:00:00Z,28.4460,-96.3961,3.363,1111122 
TCOON,ioos:station:TCOON:057:1,2014-05-05T11:00:00Z,28.4460,-96.3961,3.395,1111122 
TCOON,ioos:station:TCOON:057:1,2014-05-05T12:00:00Z,28.4460,-96.3961,3.428,1111122 
TCOON,ioos:station:TCOON:057:1,2014-05-05T13:00:00Z,28.4460,-96.3961,3.462,1111122 
TCOON,ioos:station:TCOON:057:1,2014-05-05T14:00:00Z,28.4460,-96.3961,3.492,1111122 
TCOON,ioos:station:TCOON:057:1,2014-05-05T15:00:00Z,28.4460,-96.3961,3.542,1111122 
TCOON,ioos:station:TCOON:057:1,2014-05-05T16:00:00Z,28.4460,-96.3961,3.545,1111122 
TCOON,ioos:station:TCOON:057:1,2014-05-05T17:00:00Z,28.4460,-96.3961,3.561,1111122 
TCOON,ioos:station:TCOON:057:1,2014-05-05T18:00:00Z,28.4460,-96.3961,3.587,1111122 
TCOON,ioos:station:TCOON:057:1,2014-05-05T19:00:00Z,28.4460,-96.3961,3.595,1111122 
TCOON,ioos:station:TCOON:057:1,2014-05-05T20:00:00Z,28.4460,-96.3961,3.608,1111122 
TCOON,ioos:station:TCOON:057:1,2014-05-05T21:00:00Z,28.4460,-96.3961,3.614,1111122 
TCOON,ioos:station:TCOON:057:1,2014-05-05T22:00:00Z,28.4460,-96.3961,3.614,1111122 
TCOON,ioos:station:TCOON:057:1,2014-05-05T23:00:00Z,28.4460,-96.3961,3.616,1111122 
TCOON,ioos:station:TCOON:057:1,2014-05-06T00:00:00Z,28.4460,-96.3961,3.599,1111122 
TCOON,ioos:station:TCOON:057:1,2014-05-06T01:00:00Z,28.4460,-96.3961,3.581,1111122 
TCOON,ioos:station:TCOON:057:1,2014-05-06T02:00:00Z,28.4460,-96.3961,3.572,1111122 
TCOON,ioos:station:TCOON:057:1,2014-05-06T03:00:00Z,28.4460,-96.3961,3.548,1111122 
TCOON,ioos:station:TCOON:057:1,2014-05-06T04:00:00Z,28.4460,-96.3961,3.532,1111122 
TCOON,ioos:station:TCOON:057:1,2014-05-06T05:00:00Z,28.4460,-96.3961,3.503,1111122 
TCOON,ioos:station:TCOON:057:1,2014-05-06T06:36:00Z,28.4460,-96.3961,3.466,1111122 
TCOON,ioos:station:TCOON:057:1,2014-05-06T07:00:00Z,28.4460,-96.3961,3.462,1111122 
TCOON,ioos:station:TCOON:057:1,2014-05-06T08:00:00Z,28.4460,-96.3961,3.446,1111122 
TCOON,ioos:station:TCOON:057:1,2014-05-06T09:00:00Z,28.4460,-96.3961,3.448,1111122 
TCOON,ioos:station:TCOON:057:1,2014-05-06T10:00:00Z,28.4460,-96.3961,3.449,1111122 
TCOON,ioos:station:TCOON:057:1,2014-05-06T11:00:00Z,28.4460,-96.3961,3.465,1111122 
TCOON,ioos:station:TCOON:057:1,2014-05-06T12:00:00Z,28.4460,-96.3961,3.504,1111122 
TCOON,ioos:station:TCOON:057:1,2014-05-06T13:00:00Z,28.4460,-96.3961,3.536,1111122 
TCOON,ioos:station:TCOON:057:1,2014-05-06T14:00:00Z,28.4460,-96.3961,3.58,1111122 
TCOON,ioos:station:TCOON:057:1,2014-05-06T15:00:00Z,28.4460,-96.3961,3.589,1111122 
TCOON,ioos:station:TCOON:057:1,2014-05-06T16:00:00Z,28.4460,-96.3961,3.615,1111122 
TCOON,ioos:station:TCOON:057:1,2014-05-06T16:54:00Z,28.4460,-96.3961,3.632,1111122 
TCOON,ioos:station:TCOON:057:1,2014-05-06T18:00:00Z,28.4460,-96.3961,3.662,1111122 
TCOON,ioos:station:TCOON:057:1,2014-05-06T19:12:00Z,28.4460,-96.3961,3.692,1111122 
TCOON,ioos:station:TCOON:057:1,2014-05-06T20:12:00Z,28.4460,-96.3961,3.695,1111122 
TCOON,ioos:station:TCOON:057:1,2014-05-06T21:18:00Z,28.4460,-96.3961,3.703,1111122 
TCOON,ioos:station:TCOON:057:1,2014-05-06T22:12:00Z,28.4460,-96.3961,3.691,1111122 
TCOON,ioos:station:TCOON:057:1,2014-05-06T23:12:00Z,28.4460,-96.3961,3.689,1111122 
TCOON,ioos:station:TCOON:057:1,2014-05-07T00:06:00Z,28.4460,-96.3961,3.682,1111122 
TCOON,ioos:station:TCOON:057:1,2014-05-07T01:00:00Z,28.4460,-96.3961,3.677,1111122 
TCOON,ioos:station:TCOON:057:1,2014-05-07T02:00:00Z,28.4460,-96.3961,3.678,1111122 
TCOON,ioos:station:TCOON:057:1,2014-05-07T03:00:00Z,28.4460,-96.3961,3.651,1111122 
TCOON,ioos:station:TCOON:057:1,2014-05-07T04:00:00Z,28.4460,-96.3961,3.627,1111122 
TCOON,ioos:station:TCOON:057:1,2014-05-07T05:00:00Z,28.4460,-96.3961,3.621,1111122 
TCOON,ioos:station:TCOON:057:1,2014-05-07T06:24:00Z,28.4460,-96.3961,3.612,1111122 
TCOON,ioos:station:TCOON:057:1,2014-05-07T07:00:00Z,28.4460,-96.3961,3.598,1111122 
TCOON,ioos:station:TCOON:057:1,2014-05-07T08:00:00Z,28.4460,-96.3961,3.586,1111122 
TCOON,ioos:station:TCOON:057:1,2014-05-07T09:00:00Z,28.4460,-96.3961,3.576,1111122 
TCOON,ioos:station:TCOON:057:1,2014-05-07T10:00:00Z,28.4460,-96.3961,3.572,1111122 
TCOON,ioos:station:TCOON:057:1,2014-05-07T11:00:00Z,28.4460,-96.3961,3.593,1111122 
TCOON,ioos:station:TCOON:057:1,2014-05-07T12:00:00Z,28.4460,-96.3961,3.599,1111122 
TCOON,ioos:station:TCOON:057:1,2014-05-07T13:00:00Z,28.4460,-96.3961,3.626,1111122 
TCOON,ioos:station:TCOON:057:1,2014-05-07T14:00:00Z,28.4460,-96.3961,3.666,1111122 
TCOON,ioos:station:TCOON:057:1,2014-05-07T15:00:00Z,28.4460,-96.3961,3.691,1111122 
TCOON,ioos:station:TCOON:057:1,2014-05-07T16:00:00Z,28.4460,-96.3961,3.721,1111122 
TCOON,ioos:station:TCOON:057:1,2014-05-07T17:00:00Z,28.4460,-96.3961,3.74,1111122 
TCOON,ioos:station:TCOON:057:1,2014-05-07T18:00:00Z,28.4460,-96.3961,3.745,1111122 
TCOON,ioos:station:TCOON:057:1,2014-05-07T19:00:00Z,28.4460,-96.3961,3.773,1111122 
TCOON,ioos:station:TCOON:057:1,2014-05-07T20:00:00Z,28.4460,-96.3961,3.794,1111122 
TCOON,ioos:station:TCOON:057:1,2014-05-07T21:00:00Z,28.4460,-96.3961,3.776,1111122 
TCOON,ioos:station:TCOON:057:1,2014-05-07T22:00:00Z,28.4460,-96.3961,3.76,1111122 
TCOON,ioos:station:TCOON:057:1,2014-05-07T23:00:00Z,28.4460,-96.3961,3.753,1111122 
TCOON,ioos:station:TCOON:057:1,2014-05-08T00:00:00Z,28.4460,-96.3961,3.774,1111122 
TCOON,ioos:station:TCOON:057:1,2014-05-08T01:00:00Z,28.4460,-96.3961,3.793,1111122 
TCOON,ioos:station:TCOON:057:1,2014-05-08T02:00:00Z,28.4460,-96.3961,3.754,1111122 
TCOON,ioos:station:TCOON:057:1,2014-05-08T03:00:00Z,28.4460,-96.3961,3.743,1111122 
TCOON,ioos:station:TCOON:057:1,2014-05-08T04:00:00Z,28.4460,-96.3961,3.75,1111122 
TCOON,ioos:station:TCOON:057:1,2014-05-08T05:00:00Z,28.4460,-96.3961,3.678,1111122 
TCOON,ioos:station:TCOON:057:1,2014-05-08T06:00:00Z,28.4460,-96.3961,3.732,1111122 
TCOON,ioos:station:TCOON:057:1,2014-05-08T07:00:00Z,28.4460,-96.3961,3.741,1111122 
TCOON,ioos:station:TCOON:057:1,2014-05-08T07:54:00Z,28.4460,-96.3961,3.697,1111122 
TCOON,ioos:station:TCOON:057:1,2014-05-08T09:00:00Z,28.4460,-96.3961,3.713,1111122 
TCOON,ioos:station:TCOON:057:1,2014-05-08T10:00:00Z,28.4460,-96.3961,3.701,1111122 
TCOON,ioos:station:TCOON:057:1,2014-05-08T11:00:00Z,28.4460,-96.3961,3.685,1111122 
TCOON,ioos:station:TCOON:057:1,2014-05-08T12:00:00Z,28.4460,-96.3961,3.684,1111122 
TCOON,ioos:station:TCOON:057:1,2014-05-08T13:00:00Z,28.4460,-96.3961,3.686,1111122 
TCOON,ioos:station:TCOON:057:1,2014-05-08T14:00:00Z,28.4460,-96.3961,3.717,1111122 
TCOON,ioos:station:TCOON:057:1,2014-05-08T15:00:00Z,28.4460,-96.3961,3.757,1111122 
TCOON,ioos:station:TCOON:057:1,2014-05-08T16:00:00Z,28.4460,-96.3961,3.779,1111122 
TCOON,ioos:station:TCOON:057:1,2014-05-08T17:00:00Z,28.4460,-96.3961,3.789,1111122 
TCOON,ioos:station:TCOON:057:1,2014-05-08T17:54:00Z,28.4460,-96.3961,3.811,1111122 
TCOON,ioos:station:TCOON:057:1,2014-05-08T18:54:00Z,28.4460,-96.3961,3.826,1111122 
TCOON,ioos:station:TCOON:057:1,2014-05-08T20:00:00Z,28.4460,-96.3961,3.847,1111122 
TCOON,ioos:station:TCOON:057:1,2014-05-08T21:00:00Z,28.4460,-96.3961,3.862,1111122 
TCOON,ioos:station:TCOON:057:1,2014-05-08T22:00:00Z,28.4460,-96.3961,3.867,1111122 
TCOON,ioos:station:TCOON:057:1,2014-05-08T23:00:00Z,28.4460,-96.3961,3.846,1111122 
TCOON,ioos:station:TCOON:057:1,2014-05-09T00:00:00Z,28.4460,-96.3961,3.83,1111122 
TCOON,ioos:station:TCOON:057:1,2014-05-09T01:00:00Z,28.4460,-96.3961,3.814,1111122 
TCOON,ioos:station:TCOON:057:1,2014-05-09T02:00:00Z,28.4460,-96.3961,3.8,1111122 
TCOON,ioos:station:TCOON:057:1,2014-05-09T03:00:00Z,28.4460,-96.3961,3.786,1111122 
TCOON,ioos:station:TCOON:057:1,2014-05-09T04:00:00Z,28.4460,-96.3961,3.765,1111122 
TCOON,ioos:station:TCOON:057:1,2014-05-09T05:00:00Z,28.4460,-96.3961,3.764,1111122 
TCOON,ioos:station:TCOON:057:1,2014-05-09T06:24:00Z,28.4460,-96.3961,3.789,1111122 
TCOON,ioos:station:TCOON:057:1,2014-05-09T07:00:00Z,28.4460,-96.3961,3.786,1111122 
TCOON,ioos:station:TCOON:057:1,2014-05-09T08:00:00Z,28.4460,-96.3961,3.774,1111122 
TCOON,ioos:station:TCOON:057:1,2014-05-09T09:00:00Z,28.4460,-96.3961,3.779,1111122 
TCOON,ioos:station:TCOON:057:1,2014-05-09T10:00:00Z,28.4460,-96.3961,3.794,1111122 
TCOON,ioos:station:TCOON:057:1,2014-05-09T11:00:00Z,28.4460,-96.3961,3.775,1111122 
TCOON,ioos:station:TCOON:057:1,2014-05-09T12:00:00Z,28.4460,-96.3961,3.764,1111122 
TCOON,ioos:station:TCOON:057:1,2014-05-09T13:00:00Z,28.4460,-96.3961,3.76,1111122 
TCOON,ioos:station:TCOON:057:1,2014-05-09T14:00:00Z,28.4460,-96.3961,3.748,1111122 
TCOON,ioos:station:TCOON:057:1,2014-05-09T15:00:00Z,28.4460,-96.3961,3.736,1111122 
TCOON,ioos:station:TCOON:057:1,2014-05-09T16:00:00Z,28.4460,-96.3961,3.754,1111122 
TCOON,ioos:station:TCOON:057:1,2014-05-09T17:00:00Z,28.4460,-96.3961,3.777,1111122 
TCOON,ioos:station:TCOON:057:1,2014-05-09T18:00:00Z,28.4460,-96.3961,3.769,1111122 
TCOON,ioos:station:TCOON:057:1,2014-05-09T19:00:00Z,28.4460,-96.3961,3.8,1111122 
TCOON,ioos:station:TCOON:057:1,2014-05-09T20:00:00Z,28.4460,-96.3961,3.788,1111122 
TCOON,ioos:station:TCOON:057:1,2014-05-09T20:54:00Z,28.4460,-96.3961,3.781,1111122 
TCOON,ioos:station:TCOON:057:1,2014-05-09T22:00:00Z,28.4460,-96.3961,3.746,1111122 
TCOON,ioos:station:TCOON:057:1,2014-05-09T23:00:00Z,28.4460,-96.3961,3.761,1111122 
TCOON,ioos:station:TCOON:057:1,2014-05-10T00:00:00Z,28.4460,-96.3961,3.798,1111122 
TCOON,ioos:station:TCOON:057:1,2014-05-10T00:54:00Z,28.4460,-96.3961,3.769,1111122 
TCOON,ioos:station:TCOON:057:1,2014-05-10T02:00:00Z,28.4460,-96.3961,3.738,1111122 
TCOON,ioos:station:TCOON:057:1,2014-05-10T03:00:00Z,28.4460,-96.3961,3.676,1111122 
TCOON,ioos:station:TCOON:057:1,2014-05-10T04:00:00Z,28.4460,-96.3961,3.595,1111122 
TCOON,ioos:station:TCOON:057:1,2014-05-10T05:00:00Z,28.4460,-96.3961,3.677,1111122 
TCOON,ioos:station:TCOON:057:1,2014-05-10T06:00:00Z,28.4460,-96.3961,3.746,1111122 
TCOON,ioos:station:TCOON:057:1,2014-05-10T07:00:00Z,28.4460,-96.3961,3.738,1111122 
TCOON,ioos:station:TCOON:057:1,2014-05-10T08:00:00Z,28.4460,-96.3961,3.785,1111122 
TCOON,ioos:station:TCOON:057:1,2014-05-10T08:54:00Z,28.4460,-96.3961,3.802,1111122 
TCOON,ioos:station:TCOON:057:1,2014-05-10T10:00:00Z,28.4460,-96.3961,3.813,1111122 
TCOON,ioos:station:TCOON:057:1,2014-05-10T11:00:00Z,28.4460,-96.3961,3.77,1111122 
TCOON,ioos:station:TCOON:057:1,2014-05-10T12:00:00Z,28.4460,-96.3961,3.784,1111122 
TCOON,ioos:station:TCOON:057:1,2014-05-10T13:00:00Z,28.4460,-96.3961,3.813,1111122 
TCOON,ioos:station:TCOON:057:1,2014-05-10T14:00:00Z,28.4460,-96.3961,3.833,1111122 
TCOON,ioos:station:TCOON:057:1,2014-05-10T15:00:00Z,28.4460,-96.3961,3.803,1111122 
TCOON,ioos:station:TCOON:057:1,2014-05-10T16:00:00Z,28.4460,-96.3961,3.784,1111122 
TCOON,ioos:station:TCOON:057:1,2014-05-10T17:00:00Z,28.4460,-96.3961,3.826,1111122 
TCOON,ioos:station:TCOON:057:1,2014-05-10T18:00:00Z,28.4460,-96.3961,3.834,1111122 
TCOON,ioos:station:TCOON:057:1,2014-05-10T19:00:00Z,28.4460,-96.3961,3.831,1111122 
TCOON,ioos:station:TCOON:057:1,2014-05-10T19:54:00Z,28.4460,-96.3961,3.843,1111122 
TCOON,ioos:station:TCOON:057:1,2014-05-10T21:00:00Z,28.4460,-96.3961,3.806,1111122 
TCOON,ioos:station:TCOON:057:1,2014-05-10T22:00:00Z,28.4460,-96.3961,3.835,1111122 
TCOON,ioos:station:TCOON:057:1,2014-05-10T22:54:00Z,28.4460,-96.3961,3.795,1111122 
TCOON,ioos:station:TCOON:057:1,2014-05-11T00:00:00Z,28.4460,-96.3961,3.751,1111122 
TCOON,ioos:station:TCOON:057:1,2014-05-11T01:00:00Z,28.4460,-96.3961,3.764,1111122 
TCOON,ioos:station:TCOON:057:1,2014-05-11T02:00:00Z,28.4460,-96.3961,3.728,1111122 
TCOON,ioos:station:TCOON:057:1,2014-05-11T03:00:00Z,28.4460,-96.3961,3.717,1111122 
TCOON,ioos:station:TCOON:057:1,2014-05-11T04:00:00Z,28.4460,-96.3961,3.737,1111122 
TCOON,ioos:station:TCOON:057:1,2014-05-11T05:00:00Z,28.4460,-96.3961,3.74,1111122 
TCOON,ioos:station:TCOON:057:1,2014-05-11T06:30:00Z,28.4460,-96.3961,3.768,1111122 
TCOON,ioos:station:TCOON:057:1,2014-05-11T07:00:00Z,28.4460,-96.3961,3.784,1111122 
TCOON,ioos:station:TCOON:057:1,2014-05-11T08:00:00Z,28.4460,-96.3961,3.796,1111122 
TCOON,ioos:station:TCOON:057:1,2014-05-11T08:54:00Z,28.4460,-96.3961,3.813,1111122 
TCOON,ioos:station:TCOON:057:1,2014-05-11T10:00:00Z,28.4460,-96.3961,3.841,1111122 
TCOON,ioos:station:TCOON:057:1,2014-05-11T11:00:00Z,28.4460,-96.3961,3.852,1111122 
TCOON,ioos:station:TCOON:057:1,2014-05-11T11:54:00Z,28.4460,-96.3961,3.861,1111122 
TCOON,ioos:station:TCOON:057:1,2014-05-11T13:00:00Z,28.4460,-96.3961,3.878,1111122 
TCOON,ioos:station:TCOON:057:1,2014-05-11T14:00:00Z,28.4460,-96.3961,3.882,1111122 
TCOON,ioos:station:TCOON:057:1,2014-05-11T15:00:00Z,28.4460,-96.3961,3.894,1111122 
TCOON,ioos:station:TCOON:057:1,2014-05-11T16:00:00Z,28.4460,-96.3961,3.883,1111122 
TCOON,ioos:station:TCOON:057:1,2014-05-11T17:00:00Z,28.4460,-96.3961,3.873,1111122 
TCOON,ioos:station:TCOON:057:1,2014-05-11T18:00:00Z,28.4460,-96.3961,3.892,1111122 
TCOON,ioos:station:TCOON:057:1,2014-05-11T19:00:00Z,28.4460,-96.3961,3.873,1111122 
TCOON,ioos:station:TCOON:057:1,2014-05-11T20:00:00Z,28.4460,-96.3961,3.851,1111122 
TCOON,ioos:station:TCOON:057:1,2014-05-11T21:00:00Z,28.4460,-96.3961,3.822,1111122 
TCOON,ioos:station:TCOON:057:1,2014-05-11T21:54:00Z,28.4460,-96.3961,3.809,1111122 
TCOON,ioos:station:TCOON:057:1,2014-05-11T23:00:00Z,28.4460,-96.3961,3.781,1111122 
TCOON,ioos:station:TCOON:057:1,2014-05-12T00:00:00Z,28.4460,-96.3961,3.757,1111122 
TCOON,ioos:station:TCOON:057:1,2014-05-12T01:00:00Z,28.4460,-96.3961,3.725,1111122 
TCOON,ioos:station:TCOON:057:1,2014-05-12T02:00:00Z,28.4460,-96.3961,3.711,1111122 
TCOON,ioos:station:TCOON:057:1,2014-05-12T03:00:00Z,28.4460,-96.3961,3.69,1111122 
TCOON,ioos:station:TCOON:057:1,2014-05-12T04:00:00Z,28.4460,-96.3961,3.693,1111122 
TCOON,ioos:station:TCOON:057:1,2014-05-12T05:00:00Z,28.4460,-96.3961,3.703,1111122 
TCOON,ioos:station:TCOON:057:1,2014-05-12T06:30:00Z,28.4460,-96.3961,3.752,1111122 
TCOON,ioos:station:TCOON:057:1,2014-05-12T07:00:00Z,28.4460,-96.3961,3.769,1111122 
TCOON,ioos:station:TCOON:057:1,2014-05-12T08:00:00Z,28.4460,-96.3961,3.809,1111122 
TCOON,ioos:station:TCOON:057:1,2014-05-12T09:00:00Z,28.4460,-96.3961,3.833,1111122 
TCOON,ioos:station:TCOON:057:1,2014-05-12T10:00:00Z,28.4460,-96.3961,3.865,1111122 
TCOON,ioos:station:TCOON:057:1,2014-05-12T11:00:00Z,28.4460,-96.3961,3.886,1111122 
TCOON,ioos:station:TCOON:057:1,2014-05-12T12:00:00Z,28.4460,-96.3961,3.901,1111122 
TCOON,ioos:station:TCOON:057:1,2014-05-12T13:00:00Z,28.4460,-96.3961,3.905,1111122 
TCOON,ioos:station:TCOON:057:1,2014-05-12T14:00:00Z,28.4460,-96.3961,3.916,1111122 
TCOON,ioos:station:TCOON:057:1,2014-05-12T15:00:00Z,28.4460,-96.3961,3.908,1111122 
TCOON,ioos:station:TCOON:057:1,2014-05-12T16:00:00Z,28.4460,-96.3961,3.929,1111122 
TCOON,ioos:station:TCOON:057:1,2014-05-12T17:00:00Z,28.4460,-96.3961,3.909,1111122 
TCOON,ioos:station:TCOON:057:1,2014-05-12T18:00:00Z,28.4460,-96.3961,3.9,1111122 
TCOON,ioos:station:TCOON:057:1,2014-05-12T19:00:00Z,28.4460,-96.3961,3.881,1111122 
TCOON,ioos:station:TCOON:057:1,2014-05-12T20:00:00Z,28.4460,-96.3961,3.884,1111122 